Slayton, MN

4:36 PM CDT on October 17, 2017 (GMT -0500)
Slayton

Weather History for KDVP - November, 2012

Change the Weather History Date:

Friday, November 9, 2012

  Actual Average (KOTG) Record (KOTG)
Temperature  
Mean Temperature 43 °F -  
Max Temperature 52 °F 42 °F 69 °F (1999)
Min Temperature 34 °F 26 °F 5 °F (1991)
Degree Days  
Heating Degree Days 22    
Moisture  
Dew Point 38 °F    
Average Humidity 87    
Maximum Humidity 100    
Minimum Humidity 60    
Precipitation  
Precipitation 0.00 in - - ()
Sea Level Pressure  
Sea Level Pressure 29.90 in    
Wind  
Wind Speed 12 mph (ENE)    
Max Wind Speed 17 mph    
Max Gust Speed 23 mph    
Visibility 5 miles    
Events Fog    
Averages and records for this station are not official NWS values.
T = Trace of Precipitation, MM = Missing Value Source: NWS Daily Summary

Daily Weather History Graph

Daily Weather History Graph

Search for Another Location

Airport or City:

Trip Planner

Search our weather history database for the weather conditions in past years. The results will help you decide how hot, cold, wet, or windy it might be!

Date:

Astronomy

Nov. 09, 2012 Rise Set
Actual Time 7:10 AM CST 5:02 PM CST
Civil Twilight 6:40 AM CST 5:33 PM CST
Nautical Twilight 6:05 AM CST 6:07 PM CST
Astronomical Twilight 5:31 AM CST 6:41 PM CST
Moon 2:01 AM CST (11/9) 2:24 PM CST (11/9)
Length of Visible Light 10h 53m
Length of Day
9h 51m
Waning Crescent, 23% of the Moon is Illuminated
Nov 9
Waning Crescent
Nov 13
New
Nov 20
First Quarter
Nov 28
Full
Dec 6
Last Quarter

Hourly Weather History & Observations

Time (CST) Temp. Windchill Dew Point Humidity Pressure Visibility Wind Dir Wind Speed Gust Speed Precip Events Conditions
12:14 AM 36.0 °F 28.0 °F 35.6 °F 99% 29.98 in 4.0 mi North 11.5 mph 17.3 mph N/A   Overcast
12:34 AM 36.0 °F 27.5 °F 35.6 °F 99% 29.98 in 5.0 mi North 12.7 mph - N/A   Overcast
12:55 AM 35.6 °F 28.0 °F 35.6 °F 100% 29.99 in 4.0 mi North 10.4 mph - N/A   Overcast
1:14 AM 35.6 °F 27.1 °F 35.4 °F 99% 29.98 in 4.0 mi North 12.7 mph 17.3 mph N/A   Overcast
1:35 AM 35.6 °F 28.6 °F 35.4 °F 99% 29.98 in 4.0 mi North 9.2 mph - N/A   Overcast
1:55 AM 35.6 °F 27.1 °F 35.2 °F 99% 29.98 in 4.0 mi North 12.7 mph - N/A   Overcast
2:14 AM 35.2 °F 27.1 °F 35.1 °F 99% 29.97 in 4.0 mi NNE 11.5 mph 16.1 mph N/A   Overcast
2:35 AM 35.1 °F 26.9 °F 35.1 °F 100% 29.96 in 4.0 mi NNE 11.5 mph - N/A   Overcast
2:55 AM 35.1 °F 26.9 °F 34.9 °F 99% 29.97 in 4.0 mi NNE 11.5 mph - N/A   Overcast
3:34 AM 34.9 °F 26.6 °F 34.7 °F 99% 29.97 in 4.0 mi NNE 11.5 mph - N/A   Overcast
3:55 AM 34.9 °F 26.6 °F 34.7 °F 99% 29.97 in 4.0 mi NNE 11.5 mph - N/A   Overcast
4:15 AM 34.9 °F 27.1 °F 34.7 °F 99% 29.97 in 4.0 mi NNE 10.4 mph 17.3 mph N/A   Overcast
4:34 AM 34.7 °F 26.9 °F 34.7 °F 100% 29.97 in 3.0 mi NNE 10.4 mph - N/A   Overcast
4:55 AM 34.7 °F 26.9 °F 34.7 °F 100% 29.98 in 3.0 mi NNE 10.4 mph - N/A   Overcast
5:14 AM 34.3 °F 26.5 °F 34.3 °F 100% 29.98 in 3.0 mi NNE 10.4 mph - N/A   Overcast
5:55 AM - - - N/A% 29.97 in 2.5 mi NNE 10.4 mph 18.4 mph N/A   Overcast
6:14 AM 34.2 °F 26.2 °F 34.3 °F 100% 29.98 in 2.5 mi NNE 10.4 mph 16.1 mph N/A   Overcast
6:34 AM 34.0 °F 25.0 °F 34.2 °F 100% 29.97 in 2.0 mi NNE 12.7 mph 17.3 mph N/A   Overcast
6:55 AM 34.0 °F 25.5 °F 34.2 °F 100% 29.98 in 1.8 mi NNE 11.5 mph 19.6 mph N/A   Overcast
7:35 AM 34.2 °F 26.8 °F 34.3 °F 100% 29.98 in 2.0 mi NNE 9.2 mph - N/A   Overcast
7:55 AM 34.2 °F 25.7 °F 34.3 °F 100% 29.99 in 1.8 mi NE 11.5 mph 17.3 mph N/A   Overcast
8:14 AM 34.2 °F 25.2 °F 34.3 °F 100% 29.98 in 1.2 mi NE 12.7 mph - N/A   Overcast
8:34 AM 34.0 °F 25.0 °F 34.2 °F 100% 29.98 in 0.8 mi ENE 12.7 mph 17.3 mph N/A   Overcast
8:55 AM 34.0 °F 25.5 °F 34.2 °F 100% 29.97 in 0.8 mi NE 11.5 mph - N/A   Overcast
9:15 AM 34.0 °F 26.0 °F 34.2 °F 100% 29.96 in 0.2 mi NE 10.4 mph - N/A Fog Fog
9:35 AM 34.0 °F 27.2 °F 34.2 °F 100% 29.96 in 0.2 mi NE 8.1 mph 16.1 mph N/A Fog Fog
9:55 AM 34.2 °F 26.2 °F 34.5 °F 100% 29.95 in 0.2 mi NE 10.4 mph - N/A Fog Fog
10:14 AM 34.7 °F 27.5 °F 34.7 °F 100% 29.96 in 0.2 mi ENE 9.2 mph - N/A Fog Fog
10:35 AM 34.9 °F 27.1 °F 35.1 °F 100% 29.95 in 0.5 mi NE 10.4 mph - N/A Fog Fog
10:55 AM 35.8 °F 28.8 °F 36.0 °F 100% 29.95 in 0.8 mi NE 9.2 mph - N/A   Overcast
11:14 AM 36.5 °F 29.2 °F 36.7 °F 100% 29.95 in 1.2 mi NE 10.4 mph - N/A   Overcast
11:35 AM 37.9 °F 31.5 °F 37.4 °F 98% 29.93 in 3.0 mi NE 9.2 mph - N/A   Overcast
11:55 AM 39.2 °F 32.5 °F 37.6 °F 94% 29.92 in 4.0 mi NE 10.4 mph - N/A   Overcast
12:15 PM 41.9 °F 35.0 °F 38.7 °F 88% 29.91 in 5.0 mi ENE 12.7 mph - N/A   Overcast
12:34 PM 44.2 °F 38.4 °F 39.2 °F 82% 29.89 in 7.0 mi ENE 11.5 mph - N/A   Scattered Clouds
12:55 PM 47.3 °F - 39.7 °F 75% 29.87 in 7.0 mi East 17.3 mph 20.7 mph N/A   Clear
1:14 PM 49.5 °F - 40.1 °F 70% 29.87 in 7.0 mi East 15.0 mph - N/A   Clear
1:35 PM 52.7 °F - 39.6 °F 61% 29.86 in 10.0 mi East 17.3 mph 23.0 mph N/A   Clear
1:55 PM 52.9 °F - 39.2 °F 60% 29.86 in 10.0 mi East 15.0 mph 18.4 mph N/A   Clear
2:15 PM 52.7 °F - 39.2 °F 60% 29.85 in 10.0 mi East 16.1 mph 21.9 mph N/A   Clear
2:35 PM 51.1 °F - 39.4 °F 64% 29.85 in 10.0 mi East 13.8 mph - N/A   Clear
2:55 PM 50.5 °F - 39.7 °F 66% 29.85 in 10.0 mi East 12.7 mph - N/A   Clear
3:15 PM 50.7 °F - 40.5 °F 68% 29.85 in 7.0 mi East 13.8 mph - N/A   Clear
3:35 PM 50.9 °F - 40.5 °F 67% 29.85 in 10.0 mi East 15.0 mph - N/A   Clear
3:55 PM 50.9 °F - 40.6 °F 68% 29.84 in 10.0 mi East 15.0 mph - N/A   Scattered Clouds
4:15 PM 50.5 °F - 40.5 °F 68% 29.85 in 10.0 mi ENE 13.8 mph 17.3 mph N/A   Scattered Clouds
4:35 PM 50.2 °F - 40.3 °F 69% 29.84 in 10.0 mi East 15.0 mph 19.6 mph N/A   Mostly Cloudy
4:54 PM 50.2 °F - 40.6 °F 70% 29.84 in 10.0 mi East 11.5 mph - N/A   Overcast
5:14 PM 49.6 °F - 40.5 °F 71% 29.84 in 10.0 mi East 13.8 mph 21.9 mph N/A   Overcast
5:35 PM 49.3 °F - 41.0 °F 73% 29.84 in 10.0 mi East 11.5 mph 17.3 mph N/A   Overcast
5:55 PM 48.7 °F - 41.0 °F 75% 29.85 in 10.0 mi East 13.8 mph 19.6 mph N/A   Overcast
6:15 PM 48.2 °F - 40.8 °F 76% 29.85 in 7.0 mi East 16.1 mph - N/A   Overcast
6:35 PM 47.8 °F - 41.0 °F 77% 29.84 in 10.0 mi East 15.0 mph - N/A   Overcast
6:55 PM 47.5 °F - 41.0 °F 78% 29.84 in 7.0 mi East 13.8 mph - N/A   Overcast
7:14 PM 47.3 °F - 40.8 °F 78% 29.83 in 7.0 mi East 17.3 mph - N/A   Overcast
7:34 PM 46.9 °F - 40.6 °F 79% 29.85 in 7.0 mi East 16.1 mph - N/A   Overcast
7:55 PM 46.8 °F - 41.0 °F 80% 29.85 in 7.0 mi East 13.8 mph - N/A   Overcast
8:15 PM 46.6 °F - 41.0 °F 81% 29.85 in 7.0 mi East 13.8 mph - N/A   Overcast
8:34 PM 46.4 °F 40.4 °F 40.8 °F 81% 29.84 in 7.0 mi East 13.8 mph - N/A   Overcast
8:55 PM 46.0 °F 39.9 °F 40.6 °F 81% 29.83 in 7.0 mi East 13.8 mph 18.4 mph N/A   Overcast
9:14 PM 46.0 °F 39.9 °F 41.0 °F 83% 29.84 in 7.0 mi East 13.8 mph 18.4 mph N/A   Overcast
9:35 PM 45.9 °F 40.0 °F 41.0 °F 83% 29.84 in 7.0 mi East 12.7 mph - N/A   Overcast
9:55 PM 45.7 °F 39.5 °F 41.0 °F 84% 29.83 in 7.0 mi East 13.8 mph - N/A   Overcast
10:15 PM 45.5 °F 39.6 °F 40.8 °F 84% 29.83 in 7.0 mi East 12.7 mph - N/A   Overcast
10:35 PM 45.5 °F 38.9 °F 40.6 °F 83% 29.81 in 7.0 mi East 15.0 mph 19.6 mph N/A   Overcast
10:55 PM 45.3 °F 38.7 °F 40.8 °F 84% 29.80 in 7.0 mi East 15.0 mph 20.7 mph N/A   Overcast
11:14 PM 45.1 °F 38.1 °F 40.6 °F 84% 29.79 in 7.0 mi East 16.1 mph 19.6 mph N/A   Overcast
11:34 PM 45.3 °F 39.0 °F 41.0 °F 85% 29.78 in 7.0 mi East 13.8 mph 17.3 mph N/A   Overcast
11:54 PM 45.3 °F 38.7 °F 41.0 °F 85% 29.78 in 7.0 mi East 15.0 mph - N/A   Overcast